Other Public Products
Issued by NWS Grand Forks, ND

Home | Current Version | Previous Version | Text Only | Print | Product List | Glossary On
Versions: 1 2 3 4 5 6 7 8 9 10 11 12 13 14 15 16 17 18 19 20 21 22 23 24 25 26 27 28 29 30 31 32 33 34 35 36 37 38 39 40 41 42 43 44 45 46 47 48 49 50
000
FPUS83 KFGF 161731
OPUFGF
PRAIRIE TO PINES WEATHER ROUNDUP
NATIONAL WEATHER SERVICE EASTERN NORTH DAKOTA/GRAND FORKS ND
1200 PM CDT TUE SEP 16 2014

 **SATELLITE DATA USED TO AUGMENT SKY COVER AT AUTOMATED STATIONS**
 *****  WEATHER ACROSS EASTERN NORTH DAKOTA  *****

CITY           SKY/WX    TMP DP  RH WIND       PRES   REMARKS
GRAND FORKS    MOSUNNY   67  44  43 SW10      30.01F
GRAND FORKS AF SUNNY     68  44  42 SW8       30.01F
GRAND CITY NWS   N/A     70 N/A N/A NW5         N/A
BUXTON           N/A     69  43  38 SW9         N/A
DEVILS LAKE    SUNNY     64  43  45 SW8       30.00F
FARGO          SUNNY     65  43  44 SW10      30.05F
WAHPETON ARPT  SUNNY     66  34  30 S8        30.05F
$$

 *****  WEATHER ACROSS CENTRAL AND WESTERN NORTH DAKOTA  *****

CITY           SKY/WX    TMP DP  RH WIND       PRES   REMARKS
JAMESTOWN      SUNNY     64  45  49 S12       30.02F
BISMARCK       SUNNY     63  45  51 E3        30.01F
MINOT          SUNNY     66  42  41 N6        29.99F
MINOT AFB      SUNNY     64  44  48 VRB3      29.99F
GARRISON         N/A     60  47  61 S6        30.00S
WILLISTON      SUNNY     64  39  39 CALM      30.01F
DICKINSON      SUNNY     66  48  52 NE5       29.98F
HETTINGER      SUNNY     69  47  45 CALM      30.01F
$$

 *****  OTHER OBSERVATIONS NORTHEAST NORTH DAKOTA  *****

CITY           SKY/WX    TMP DP  RH WIND       PRES   REMARKS
WALHALLA         N/A     66  41  39 CALM      29.98F
LANGDON        FAIR      72  39  30 W3        29.99F
CAVALIER       FAIR      66  45  45 CALM      29.98F
GRAFTON        FAIR      68  45  42 CALM      29.99F
CANDO          FAIR      66  45  45 SW5       30.00F
FORT TOTTEN      N/A     67  45  44 SW5       29.95S
ROLLA            N/A     68  36  30 SW8       30.00F
RUGBY          FAIR      64  45  48 CALM      30.00F
 ***** THE ABOVE OBSERVATIONS ARE NON NWS ARE NOT QUALITY
        CONTROLLED AND MAY MIS-REPORT RAIN FOR SNOW...
$$

 *****  OTHER OBSERVATIONS SOUTHEAST NORTH DAKOTA *****

CITY           SKY/WX    TMP DP  RH WIND       PRES   REMARKS
COOPERSTOWN    NOT AVBL
VALLEY CITY    FAIR      64  45  48 S12       30.03F
OAKES            N/A     66  46  48 S14       30.02F
GWINNER        SUNNY     68  45  42 S12       30.04F
BUFFALO          N/A     67  38  34 S8          N/A
WYNDMERE         N/A     70  43  37 S5          N/A
 ***** THE ABOVE OBSERVATIONS ARE NON NWS ARE NOT QUALITY
       CONTROLLED AND MAY MIS-REPORT RAIN FOR SNOW...
$$

  *****  WEATHER ACROSS NORTHERN MINNESOTA  *****

CITY           SKY/WX    TMP DP  RH WIND       PRES   REMARKS
FLAG ISLAND    SUNNY     57  46  67 CALM      29.97S
WARROAD        MOSUNNY   54  46  76 SW5       30.01S
ROSEAU         CLOUDY    55  46  71 SW5       30.00S
HALLOCK        MOSUNNY   63  43  48 CALM      29.99F
THF RVR FALLS  SUNNY     63  43  48 SW10G17   30.02F
HALSTAD          N/A     67  39  36 S6          N/A
FOSSTON        SUNNY     64  45  48 SW12G18   30.04F
BAUDETTE       CLOUDY    56  44  64 NW5       30.00S
WASKISH        PTSUNNY   59  46  63 SW6       30.02S
CROOKSTON      SUNNY     66  45  45 SW8       30.02F
$$
  *****  WEATHER ACROSS CENTRAL AND WEST MINNESOTA  *****

CITY           SKY/WX    TMP DP  RH WIND       PRES   REMARKS
BEMIDJI        SUNNY     65  40  40 SW14      30.04S
PARK RAPIDS    SUNNY     63  41  44 SW9       30.07F
WADENA         SUNNY     64  39  39 SW8       30.08S
DETROIT LAKES  SUNNY     63  41  45 S7        30.07F
MOORHEAD       SUNNY     64  41  42 SW7       30.05F
FERGUS FALLS   SUNNY     64  36  34 S6        30.07F
ELBOW LAKE     FAIR      64  41  43 S7        30.08F
MORRIS MN      SUNNY     66  43  42 S8        30.08F
STAPLES        SUNNY     64  37  36 S10       30.09S
WHEATON        SUNNY     64  41  42 S10       30.08F
$$
  *****  WEATHER ELSEWHERE ACROSS MINNESOTA  *****

CITY           SKY/WX    TMP DP  RH WIND       PRES   REMARKS
DULUTH         MOSUNNY   64  40  41 W15G24    30.04F
INTRNTL FALLS  CLOUDY    56  44  64 NW7       29.99S
ELY            MOSUNNY   63  43  48 W15G22    29.98F
CLOQUET        SUNNY     64  37  36 W14G20    30.06S
BRAINERD       SUNNY     62  39  42 W14       30.10F
HIBBING        SUNNY     63  42  46 W10G21    30.03F
ALEXANDRIA     SUNNY     62  41  46 SW10      30.11F
SAINT CLOUD    SUNNY     65  42  43 SW10      30.13S
MINNEAPOLIS    SUNNY     63  41  44 SW9       30.14F
$$

  *****  WEATHER ACROSS SOUTH DAKOTA  *****

CITY           SKY/WX    TMP DP  RH WIND       PRES   REMARKS
SIOUX FALLS    SUNNY     62  46  55 S13       30.12F
BROOKINGS      NOT AVBL
WATERTOWN      SUNNY     63  44  50 S14       30.08F
HURON          SUNNY     64  47  53 S12       30.04F
SISSETON         N/A     68  41  37 SW12      30.05F
ABERDEEN       SUNNY     61  46  57 S10       30.02F
MITCHELL       SUNNY     65  50  58 MISG      30.05F
PIERRE         SUNNY     65  49  56 NW3       29.98F
MOBRIDGE       SUNNY     61  46  57 CALM      29.98F
RAPID CITY     SUNNY     74  45  35 CALM      30.03S
$$

  *****  SOME WEATHER IN NEARBY STATES *****

CITY           SKY/WX    TMP DP  RH WIND       PRES   REMARKS
GLASGOW MT     SUNNY     64  39  39 S9        29.98F
GREAT FALLS MT MOSUNNY   68  38  33 SW6       29.99F
CHEYENNE WY    SUNNY     76  28  17 NW17G26   30.21F
SCOTTSBLUFF NE SUNNY     70  52  52 NW10      30.09F
OMAHA NE       MOSUNNY   61  46  57 S9        30.21F
DES MOINES IA  MOSUNNY   62  44  51 SW5       30.21F
DAVENPORT IA   SUNNY     62  40  44 VRB6      30.22F
CHICAGO IL     MOSUNNY   60  40  47 CALM      30.19F
EAU CLAIRE WI  SUNNY     62  41  46 W9        30.15F
LA CROSSE WI   SUNNY     63  43  48 W8        30.18F
$$

  *****  SOME NATIONAL WEATHER *****

CITY           SKY/WX    TMP DP  RH WIND       PRES   REMARKS
LA GUARDIA NY  PTSUNNY   65  58  78 NE7       29.99F
RALEIGH NC     MOSUNNY   82  61  48 CALM      30.02F
ATLANTA GA     PTSUNNY   82  69  64 N6        30.07F
NEW ORLEANS LA PTSUNNY   88  76  67 CALM      30.05F HX  99
OKLAHOMA CITY  MOSUNNY   82  70  65 CALM      30.13F
ALBUQUERQUE NM CLOUDY    69  57  65 S3        30.32S
SALT LAKE CITY PTSUNNY   78  43  28 SE12      30.10F
LOS ANGELES CA MOSUNNY   88  63  43 CALM      29.78S
BOISE ID       MOSUNNY   75  53  46 NE10      29.97F
SEATTLE WA     PTSUNNY   62  54  74 S8        29.92R
$$

*** WEATHER ACROSS MANITOBA...SASKATCHEWAN AND ONTARIO ***
                ***ONTARIO***

CITY           SKY/WX    TMP DP  RH WIND       PRES   REMARKS
GERALDTON      DRZL/FOG N/A N/A N/A N7          N/A  VSB 3/4
THUNDER BAY    LGT RAIN  55  45  67 W9        29.93S
SIOUX LOOKOUT  CLOUDY    46  43  87 N3        29.99R
TORONTO        PTSUNNY   64  43  45 NW15      30.06
BIG TROUT LK   PTSUNNY   37  27  65 NW12G17   30.05S
PICKLE LAKE    PTSUNNY   39  23  52 N10G20    30.03R
DRYDEN         MOSUNNY   55  45  67 N8        29.97R
KENORA         PTSUNNY   61  45  55 NW7G17    29.98
$$
                *** MANITOBA***

CITY           SKY/WX    TMP DP  RH WIND       PRES   REMARKS
BRANDON        MOSUNNY   63  48  59 E5        29.99S
DAUPHIN        CLOUDY    50  46  87 E10       30.01S
ISLAND LAKE    MOSUNNY   39  25  56 NE3       30.12F
PILOT MOUND      N/A     64  39  39 W5          N/A
THE PAS        LGT RAIN  37  36  93 E6        30.05S
THOMPSON       PTSUNNY   39  25  56 CALM      30.13F
WINNIPEG       PTSUNNY   63  50  63 NE8       29.99S
LYNN LAKE      MOSUNNY   36  19  51 MISG      30.12S
CHURCHILL      PTSUNNY   36  25  64 NW17G25   30.09S
GILLAM         PTSUNNY   36  23  60 NW7       30.12S
$$
                ***SASKATCHEWAN***

CITY           SKY/WX    TMP DP  RH WIND       PRES   REMARKS
ESTEVAN        MOSUNNY   66  43  42 NW2       30.00F
KINDERSLEY     MOSUNNY   68  45  42 SW3       29.93
LLOYDMINSTER   MOSUNNY   68  46  45 VRB5      29.91S
PRINCE ALBERT  PTSUNNY   50  45  81 E8        29.93F
REGINA         MOSUNNY   68  45  42 SW7       29.96F
YORKTON        CLOUDY    61  43  51 VRB2      29.95F



USA.gov is the U.S. government's official web portal to all federal, state and local government web resources and services.